Time,TemperatureF,DewpointF,PressureIn,WindDirection,WindDirectionDegrees,WindSpeedMPH,WindSpeedGustMPH,Humidity,HourlyPrecipIn,Conditions,Clouds,dailyrainin,SoftwareType,DateUTC
2013-04-13 09:15:00,63.8,29.1,29.94,North,352,2.0,4.0,27,0.00,,,0.00,Wunderground v.1.15,2013-04-13 16:15:00,
2013-04-13 09:20:00,64.2,29.5,29.93,NE,46,2.0,4.0,27,0.00,,,0.00,Wunderground v.1.15,2013-04-13 16:20:00,
2013-04-13 09:25:00,64.8,29.1,29.93,North,349,2.0,2.0,26,0.00,,,0.00,Wunderground v.1.15,2013-04-13 16:25:00,
2013-04-13 09:30:00,65.7,28.9,29.93,ENE,63,2.0,5.0,25,0.00,,,0.00,Wunderground v.1.15,2013-04-13 16:30:00,
2013-04-13 09:40:00,66.0,29.1,29.93,NE,37,2.0,4.0,25,0.00,,,0.00,Wunderground v.1.15,2013-04-13 16:40:00,
2013-04-13 09:45:00,66.1,29.2,29.92,SSE,150,1.0,1.0,25,0.00,,,0.00,Wunderground v.1.15,2013-04-13 16:45:00,
2013-04-13 09:55:00,66.7,28.7,29.92,ENE,59,2.0,2.0,24,0.00,,,0.00,Wunderground v.1.15,2013-04-13 16:55:00,
2013-04-13 10:05:00,68.0,29.8,29.92,East,79,1.0,4.0,24,0.00,,,0.00,Wunderground v.1.15,2013-04-13 17:05:00,
2013-04-13 10:10:00,67.9,27.6,29.92,NW,326,2.0,2.0,22,0.00,,,0.00,Wunderground v.1.15,2013-04-13 17:10:00,
2013-04-13 10:16:00,68.8,29.5,29.91,NE,56,2.0,2.0,23,0.00,,,0.00,Wunderground v.1.15,2013-04-13 17:16:00,
2013-04-13 10:25:00,69.3,28.8,29.91,NE,39,2.0,2.0,22,0.00,,,0.00,Wunderground v.1.15,2013-04-13 17:25:00,
2013-04-13 10:35:00,69.6,29.0,29.91,SW,231,2.0,2.0,22,0.00,,,0.00,Wunderground v.1.15,2013-04-13 17:35:00,
2013-04-13 10:45:00,70.5,29.8,29.90,East,99,3.0,3.0,22,0.00,,,0.00,Wunderground v.1.15,2013-04-13 17:45:00,
2013-04-13 10:55:00,71.8,29.7,29.90,ENE,75,3.0,3.0,21,0.00,,,0.00,Wunderground v.1.15,2013-04-13 17:55:00,
2013-04-13 11:00:00,72.6,30.4,29.90,SSE,154,2.0,2.0,21,0.00,,,0.00,Wunderground v.1.15,2013-04-13 18:00:00,
2013-04-13 11:10:00,73.0,30.7,29.89,SE,124,2.0,2.0,21,0.00,,,0.00,Wunderground v.1.15,2013-04-13 18:10:00,
2013-04-13 11:15:00,73.7,31.3,29.89,SE,127,2.0,2.0,21,0.00,,,0.00,Wunderground v.1.15,2013-04-13 18:15:00,
2013-04-13 11:25:00,73.7,30.1,29.89,East,82,2.0,2.0,20,0.00,,,0.00,Wunderground v.1.15,2013-04-13 18:25:00,
2013-04-13 11:30:00,74.4,30.7,29.89,ESE,110,2.0,2.0,20,0.00,,,0.00,Wunderground v.1.15,2013-04-13 18:30:00,
2013-04-13 11:35:00,74.9,31.1,29.88,East,79,2.0,2.0,20,0.00,,,0.00,Wunderground v.1.15,2013-04-13 18:35:00,
2013-04-13 11:40:00,75.0,29.9,29.88,ENE,65,2.0,5.0,19,0.00,,,0.00,Wunderground v.1.15,2013-04-13 18:40:00,
2013-04-13 11:45:00,74.5,29.5,29.87,NE,49,3.0,5.0,19,0.00,,,0.00,Wunderground v.1.15,2013-04-13 18:45:00,
2013-04-13 11:55:00,75.4,30.2,29.87,NNE,32,3.0,4.0,19,0.00,,,0.00,Wunderground v.1.15,2013-04-13 18:55:00,
2013-04-13 12:00:00,75.5,29.0,29.86,ENE,69,3.0,3.0,18,0.00,,,0.00,Wunderground v.1.15,2013-04-13 19:00:00,
2013-04-13 12:10:00,76.4,29.7,29.86,NNE,32,3.0,3.0,18,0.00,,,0.00,Wunderground v.1.15,2013-04-13 19:10:00,
2013-04-13 12:15:00,77.5,29.2,29.86,South,169,3.0,3.0,17,0.00,,,0.00,Wunderground v.1.15,2013-04-13 19:15:00,
2013-04-13 12:25:00,77.4,27.7,29.85,WNW,294,3.0,8.0,16,0.00,,,0.00,Wunderground v.1.15,2013-04-13 19:25:00,
2013-04-13 12:30:00,78.0,24.9,29.85,WNW,300,4.0,6.0,14,0.00,,,0.00,Wunderground v.1.15,2013-04-13 19:30:00,
2013-04-13 12:40:00,77.9,26.5,29.84,NW,307,5.0,5.0,15,0.00,,,0.00,Wunderground v.1.15,2013-04-13 19:40:00,
2013-04-13 12:45:00,78.9,27.3,29.84,WNW,291,6.0,9.0,15,0.00,,,0.00,Wunderground v.1.15,2013-04-13 19:45:00,
2013-04-13 12:55:00,79.9,26.4,29.84,West,278,6.0,7.0,14,0.00,,,0.00,Wunderground v.1.15,2013-04-13 19:55:00,
2013-04-13 13:00:00,80.3,26.7,29.84,NW,323,6.0,9.0,14,0.00,,,0.00,Wunderground v.1.15,2013-04-13 20:00:00,
2013-04-13 13:10:00,79.5,26.1,29.84,WNW,300,8.0,8.0,14,0.00,,,0.00,Wunderground v.1.15,2013-04-13 20:10:00,
2013-04-13 13:15:00,79.6,24.4,29.83,NNW,328,5.0,8.0,13,0.00,,,0.00,Wunderground v.1.15,2013-04-13 20:15:00,
2013-04-13 13:25:00,79.9,26.4,29.83,SW,221,6.0,7.0,14,0.00,,,0.00,Wunderground v.1.15,2013-04-13 20:25:00,
2013-04-13 13:30:00,80.1,26.6,29.83,WNW,289,7.0,9.0,14,0.00,,,0.00,Wunderground v.1.15,2013-04-13 20:30:00,
2013-04-13 13:40:00,79.1,27.5,29.82,WNW,282,9.0,9.0,15,0.00,,,0.00,Wunderground v.1.15,2013-04-13 20:40:00,
2013-04-13 13:45:00,80.2,24.9,29.83,WSW,237,7.0,9.0,13,0.00,,,0.00,Wunderground v.1.15,2013-04-13 20:45:00,
2013-04-13 13:55:00,79.8,26.3,29.82,West,264,7.0,10.0,14,0.00,,,0.00,Wunderground v.1.15,2013-04-13 20:55:00,
2013-04-13 14:00:00,79.9,26.4,29.82,NW,306,6.0,6.0,14,0.00,,,0.00,Wunderground v.1.15,2013-04-13 21:00:00,
2013-04-13 14:10:00,79.9,24.6,29.81,SSE,158,4.0,4.0,13,0.00,,,0.00,Wunderground v.1.15,2013-04-13 21:10:00,
2013-04-13 14:15:00,80.1,26.6,29.81,West,269,5.0,7.0,14,0.00,,,0.00,Wunderground v.1.15,2013-04-13 21:15:00,
2013-04-13 14:25:00,79.2,25.9,29.80,WNW,303,10.0,10.0,14,0.00,,,0.00,Wunderground v.1.15,2013-04-13 21:25:00,
2013-04-13 14:30:00,79.4,26.0,29.80,WNW,285,9.0,9.0,14,0.00,,,0.00,Wunderground v.1.15,2013-04-13 21:30:00,
2013-04-13 14:40:00,80.2,24.9,29.80,NW,307,7.0,7.0,13,0.00,,,0.00,Wunderground v.1.15,2013-04-13 21:40:00,
2013-04-13 14:45:00,80.4,26.8,29.80,WSW,251,6.0,11.0,14,0.00,,,0.00,Wunderground v.1.15,2013-04-13 21:45:00,
2013-04-13 14:55:00,79.8,26.3,29.80,West,275,7.0,13.0,14,0.00,,,0.00,Wunderground v.1.15,2013-04-13 21:55:00,
2013-04-13 15:00:00,80.5,26.9,29.79,SW,233,5.0,6.0,14,0.00,,,0.00,Wunderground v.1.15,2013-04-13 22:00:00,
2013-04-13 15:10:00,81.2,27.4,29.79,SSW,212,7.0,7.0,14,0.00,,,0.00,Wunderground v.1.15,2013-04-13 22:10:00,
2013-04-13 15:15:00,80.5,26.9,29.78,SSW,205,9.0,9.0,14,0.00,,,0.00,Wunderground v.1.15,2013-04-13 22:15:00,
2013-04-13 15:25:00,80.0,26.5,29.78,West,280,9.0,10.0,14,0.00,,,0.00,Wunderground v.1.15,2013-04-13 22:25:00,
2013-04-13 15:30:00,80.3,26.7,29.77,SE,139,7.0,7.0,14,0.00,,,0.00,Wunderground v.1.15,2013-04-13 22:30:00,
2013-04-13 15:40:00,79.3,27.6,29.77,SW,231,9.0,9.0,15,0.00,,,0.00,Wunderground v.1.15,2013-04-13 22:40:00,
2013-04-13 15:45:00,79.9,26.4,29.77,South,176,8.0,9.0,14,0.00,,,0.00,Wunderground v.1.15,2013-04-13 22:45:00,
2013-04-13 15:55:00,79.5,26.1,29.77,West,276,8.0,12.0,14,0.00,,,0.00,Wunderground v.1.15,2013-04-13 22:55:00,
2013-04-13 16:00:00,80.0,26.5,29.77,WNW,301,7.0,9.0,14,0.00,,,0.00,Wunderground v.1.15,2013-04-13 23:00:00,
2013-04-13 16:10:00,79.8,26.3,29.77,WNW,283,8.0,8.0,14,0.00,,,0.00,Wunderground v.1.15,2013-04-13 23:10:00,
2013-04-13 16:15:00,80.1,26.6,29.77,SSW,195,7.0,9.0,14,0.00,,,0.00,Wunderground v.1.15,2013-04-13 23:15:00,
2013-04-13 16:25:00,80.0,26.5,29.77,SW,228,7.0,8.0,14,0.00,,,0.00,Wunderground v.1.15,2013-04-13 23:25:00,
2013-04-13 16:30:00,80.0,26.5,29.77,SSW,212,5.0,14.0,14,0.00,,,0.00,Wunderground v.1.15,2013-04-13 23:30:00,
2013-04-13 16:40:00,79.2,25.9,29.76,WNW,302,7.0,7.0,14,0.00,,,0.00,Wunderground v.1.15,2013-04-13 23:40:00,
2013-04-13 16:45:00,79.1,25.8,29.76,WSW,254,6.0,7.0,14,0.00,,,0.00,Wunderground v.1.15,2013-04-13 23:45:00,
2013-04-13 16:55:00,79.4,26.0,29.76,SSW,210,6.0,7.0,14,0.00,,,0.00,Wunderground v.1.15,2013-04-13 23:55:00,
2013-04-13 17:00:00,79.8,26.3,29.77,SSW,207,5.0,5.0,14,0.00,,,0.00,Wunderground v.1.15,2013-04-14 00:00:00,
2013-04-13 17:10:00,77.6,26.3,29.76,West,271,6.0,6.0,15,0.00,,,0.00,Wunderground v.1.15,2013-04-14 00:10:00,
2013-04-13 17:15:00,77.6,26.3,29.77,SW,218,8.0,8.0,15,0.00,,,0.00,Wunderground v.1.15,2013-04-14 00:15:00,
2013-04-13 17:25:00,77.4,26.1,29.76,West,271,7.0,8.0,15,0.00,,,0.00,Wunderground v.1.15,2013-04-14 00:25:00,
2013-04-13 17:30:00,77.9,28.1,29.76,SW,233,6.0,6.0,16,0.00,,,0.00,Wunderground v.1.15,2013-04-14 00:30:00,
2013-04-13 17:40:00,77.4,27.7,29.75,West,263,6.0,12.0,16,0.00,,,0.00,Wunderground v.1.15,2013-04-14 00:40:00,
2013-04-13 17:45:00,77.6,27.8,29.75,WNW,302,5.0,12.0,16,0.00,,,0.00,Wunderground v.1.15,2013-04-14 00:45:00,
2013-04-13 19:20:00,70.5,23.5,29.77,SW,228,2.0,18.0,17,0.00,,,0.00,Wunderground v.1.15,2013-04-14 02:20:00,
2013-04-13 19:25:00,70.5,23.5,29.77,SW,234,3.0,18.0,17,0.00,,,0.00,Wunderground v.1.15,2013-04-14 02:25:00,
2013-04-13 19:30:00,70.2,23.3,29.76,SW,235,3.0,4.0,17,0.00,,,0.00,Wunderground v.1.15,2013-04-14 02:30:00,
2013-04-13 19:40:00,69.9,23.1,29.77,SW,225,2.0,7.0,17,0.00,,,0.00,Wunderground v.1.15,2013-04-14 02:40:00,
2013-04-13 19:45:00,69.9,23.1,29.77,NW,305,3.0,7.0,17,0.00,,,0.00,Wunderground v.1.15,2013-04-14 02:45:00,
2013-04-13 19:55:00,69.6,22.8,29.77,SSW,198,2.0,3.0,17,0.00,,,0.00,Wunderground v.1.15,2013-04-14 02:55:00,
2013-04-13 20:00:00,69.7,22.9,29.77,South,188,3.0,6.0,17,0.00,,,0.00,Wunderground v.1.15,2013-04-14 03:00:00,
2013-04-13 20:10:00,69.7,22.9,29.77,NW,313,4.0,4.0,17,0.00,,,0.00,Wunderground v.1.15,2013-04-14 03:10:00,
2013-04-13 20:15:00,69.4,22.7,29.77,SW,218,3.0,4.0,17,0.00,,,0.00,Wunderground v.1.15,2013-04-14 03:15:00,
2013-04-13 20:25:00,68.9,23.6,29.77,SSW,200,2.0,4.0,18,0.00,,,0.00,Wunderground v.1.15,2013-04-14 03:25:00,
2013-04-13 20:30:00,68.9,23.6,29.77,SSW,205,2.0,4.0,18,0.00,,,0.00,Wunderground v.1.15,2013-04-14 03:30:00,
2013-04-13 20:40:00,68.9,23.6,29.78,SE,124,2.0,2.0,18,0.00,,,0.00,Wunderground v.1.15,2013-04-14 03:40:00,
2013-04-13 20:45:00,68.8,23.5,29.78,WNW,284,2.0,2.0,18,0.00,,,0.00,Wunderground v.1.15,2013-04-14 03:45:00,